Regional Weather Roundup
Issued by NWS Burlington, VT

Home | Current Version | Previous Version | Text Only | Print | Product List | Glossary On
Versions: 1 2 3 4 5 6 7 8 9 10 11 12 13 14 15 16 17 18 19 20 21 22 23 24 25 26 27 28 29 30 31 32 33 34 35 36 37 38 39 40 41 42 43 44 45 46 47 48 49 50
000
ASUS41 KBTV 100030
RWRBTV
VERMONT REGIONAL WEATHER ROUNDUP
NATIONAL WEATHER SERVICE BURLINGTON VT
700 PM EST TUE FEB 09 2016

NOTE: "FAIR" INDICATES FEW OR NO CLOUDS BELOW 12,000 FEET WITH NO
SIGNIFICANT WEATHER AND/OR OBSTRUCTIONS TO VISIBILITY.

* THESE REPORTS ARE NOT UNDER NWS QUALITY CONTROL AND/OR DO NOT
  REPORT WEATHER SUCH AS PRECIPITATION AND FOG.

VTZ001>019-100100-
_____VERMONT_____


CITY           SKY/WX    TMP DP  RH WIND       PRES   REMARKS
BURLINGTON     FLURRIES  25  19  78 N5        29.58S WCI  19
6HR MIN TEMP:  25; 6HR MAX TEMP:  28; 6HR PCP: TRACE;

MONTPELIER     CLOUDY    22  18  85 CALM      29.57S
6HR MIN TEMP:  22; 6HR MAX TEMP:  24;

MORRISVILLE    CLOUDY    24  18  77 CALM      29.57R
6HR MIN TEMP:  24; 6HR MAX TEMP:  29; 6HR PCP: TRACE;

ST. JOHNSBURY*   N/A     20  14  77 MISG      29.55S
6HR MIN TEMP:  20; 6HR MAX TEMP:  27;

LYNDONVILLE*   MOCLDY    21  15  78 CALM      29.55S
6HR MIN TEMP:  19; 6HR MAX TEMP:  25;

RUTLAND*       CLOUDY    25  16  68 SE6       29.56S WCI  18
6HR MIN TEMP:  25; 6HR MAX TEMP:  27; 6HR PCP:  0.01;

SPRINGFIELD    CLOUDY    22  17  81 CALM      29.59S
6HR MIN TEMP:  22; 6HR MAX TEMP:  27;

HIGHGATE*      CLOUDY    21  18  88 N3        29.59F
6HR MIN TEMP:  22; 6HR MAX TEMP:  26;

NEWPORT*       CLOUDY    19  16  86 N5        29.56S WCI  13
6HR MIN TEMP:  17; 6HR MAX TEMP:  23;

BENNINGTON     LGT SNOW  27  22  81 CALM      29.56R
6HR MIN TEMP:  27; 6HR MAX TEMP:  32; 6HR PCP: TRACE;

SUTTON*          N/A     18 N/A N/A MISG        N/A
GALLUP MILLS*    N/A     19 N/A N/A MISG        N/A
UNION VILLAGE*   N/A     23 N/A N/A MISG        N/A
MT. MANSFIELD*   N/A     12 N/A N/A NW8         N/A  WCI   1

_____LAKE CHAMPLAIN_____


CITY           SKY/WX    TMP DP  RH WIND       PRES   REMARKS
COLCHESTER RF*   N/A     27  25  93 NE10        N/A  WCI  17
DIAMOND ISL*     N/A     28  25  86 S1          N/A

$$

NYZ007-026>031-035-052-083-100100-
_____NORTHERN NEW YORK_____


CITY           SKY/WX    TMP DP  RH WIND       PRES   REMARKS
PLATTSBURGH    LGT SNOW  23  18  81 N9        29.59S WCI  13
6HR MIN TEMP:  23; 6HR MAX TEMP:  26; 6HR PCP:  0.01;

SARANAC LAKE   LGT SNOW  21  18  88 E6        29.46S FOG     WCI  13
6HR MIN TEMP:  21; 6HR MAX TEMP:  27; 6HR PCP: TRACE;

MASSENA        LGT SNOW  21  16  81 NE7       29.59F WCI  12
6HR MIN TEMP:  21; 6HR MAX TEMP:  23; 6HR PCP: TRACE;

OGDENSBURG*    FLURRIES  23  19  86 NE5       29.57S WCI  17
STARK FALLS*     N/A     25 N/A N/A N1          N/A
WATERTOWN      CLOUDY    25  22  88 NE7       29.55S FOG     WCI  17
6HR MIN TEMP:  25; 6HR MAX TEMP:  29; 6HR PCP: TRACE;

ALBANY         LGT SNOW  28  23  81 CALM      29.60R
6HR MIN TEMP:  28; 6HR MAX TEMP:  32; 6HR PCP: TRACE;

GLENS FALLS    CLOUDY    27  19  72 CALM      29.59R
6HR MIN TEMP:  26; 6HR MAX TEMP:  28;


$$
NHZ002-005-011-100100-
_____NEW HAMPSHIRE_____


CITY           SKY/WX    TMP DP  RH WIND       PRES   REMARKS
LEBANON        CLOUDY    26  17  68 CALM      29.57S
6HR MIN TEMP:  25; 6HR MAX TEMP:  29;

MT WASHINGTON  CLOUDY     7   3  85 NW23        N/A  WCI -14
6HR MIN TEMP:   5; 6HR MAX TEMP:   9;

PLYMOUTH       CLOUDY    24  19  82 CALM      29.58S
6HR MIN TEMP:  24; 6HR MAX TEMP:  29;

WHITEFIELD     CLOUDY    24  15  68 SW3       29.54R
6HR MIN TEMP:  24; 6HR MAX TEMP:  28;


$$

_____REGIONAL QUEBEC LOCATIONS_____


CITY           SKY/WX    TMP DP  RH WIND       PRES   REMARKS
MONTREAL       LGT SNOW  19  16  86 NE8       29.62S WCI   9
QUEBEC CITY    SNOWSHWR  19  14  79 E9        29.63S WCI   9
SHERBROOKE     FLURRIES  16  12  86 NE6       29.57R WCI   7

_____REGIONAL ONTARIO LOCATIONS_____


CITY           SKY/WX    TMP DP  RH WIND       PRES   REMARKS
OTTAWA         FLURRIES  19  16  86 E7        29.59S WCI  10

______KEY______
VSB  - VISIBILITY IN MILES
WCI  - WIND CHILL INDEX
HX   - HEAT INDEX
$$
NNNN




USA.gov is the U.S. government's official web portal to all federal, state and local government web resources and services.